New Orleans, LA

4:30 PM CST on February 07, 2016 (GMT -0600)
New Orleans Naval Air Station

Weather History for KNBG - December, 2013

Change the Weather History Date:

Saturday, December 28, 2013

  Actual Average Record
Temperature  
Mean Temperature 48 °F -  
Max Temperature 51 °F 60 °F 77 °F (2007)
Min Temperature 46 °F 43 °F 23 °F (2010)
Degree Days  
Heating Degree Days 16    
Moisture  
Dew Point 46 °F    
Average Humidity 88    
Maximum Humidity 96    
Minimum Humidity 69    
Precipitation  
Precipitation 0.00 in - - ()
Sea Level Pressure  
Sea Level Pressure 30.11 in    
Wind  
Wind Speed 6 mph (North)    
Max Wind Speed 12 mph    
Max Gust Speed 17 mph    
Visibility 5 miles    
Events Rain    
Averages and records for this station are not official NWS values.
T = Trace of Precipitation, MM = Missing Value Source: NWS Daily Summary

Daily Weather History Graph

Daily Weather History Graph

Search for Another Location

Airport or City:

Trip Planner

Search our weather history database for the weather conditions in past years. The results will help you decide how hot, cold, wet, or windy it might be!

Date:

Astronomy

Dec. 28, 2013 Rise Set
Actual Time 6:54 AM CST 5:09 PM CST
Civil Twilight 6:28 AM CST 5:35 PM CST
Nautical Twilight 5:58 AM CST 6:05 PM CST
Astronomical Twilight 5:29 AM CST 6:34 PM CST
Moon 2:41 AM CST (12/28) 1:52 PM CST (12/28)
Length of Visible Light 11h 07m
Length of Day
10h 14m
Waning Crescent, 19% of the Moon is Illuminated
Dec 28
Waning Crescent
Jan 1
New
Jan 7
First Quarter
Jan 15
Full
Jan 23
Last Quarter

Hourly Weather History & Observations

Time (CST) Temp. Windchill Dew Point Humidity Pressure Visibility Wind Dir Wind Speed Gust Speed Precip Events Conditions
12:55 AM 48.9 °F - 41.0 °F 74% 30.28 in 10.0 mi NE 6.9 mph - N/A Rain Light Rain
1:11 AM 48.2 °F - 39.2 °F 71% 30.27 in 10.0 mi NNE 6.9 mph - N/A Rain Light Rain
1:55 AM 48.9 °F - 39.0 °F 69% 30.25 in 10.0 mi NE 6.9 mph - N/A Rain Light Rain
2:55 AM 48.9 °F - 39.9 °F 71% 30.24 in 9.0 mi NNE 3.5 mph - N/A Rain Light Rain
3:55 AM 46.9 °F - 42.1 °F 83% 30.22 in 8.0 mi NNE 5.8 mph - N/A Rain Light Rain
4:55 AM 46.0 °F 43.1 °F 43.0 °F 89% 30.20 in 5.0 mi NNE 5.8 mph - N/A Rain Rain
5:55 AM 46.0 °F 40.6 °F 43.0 °F 89% 30.16 in 3.0 mi NE 11.5 mph - N/A Rain Light Rain
6:15 AM 46.4 °F 43.5 °F 44.6 °F 93% 30.17 in 6.0 mi NNE 5.8 mph - N/A Rain Light Rain
6:55 AM 46.9 °F - 45.0 °F 93% 30.18 in 2.5 mi NNE 5.8 mph - N/A Rain Light Rain
7:44 AM 48.2 °F - 44.6 °F 87% 30.18 in 2.5 mi North 4.6 mph - N/A Rain Light Rain
7:55 AM 48.0 °F - 45.0 °F 89% 30.18 in 3.0 mi North 6.9 mph - N/A Rain Light Rain
8:48 AM 48.2 °F - 46.4 °F 93% 30.18 in 2.0 mi North 8.1 mph - N/A Rain Heavy Rain
8:55 AM 48.0 °F - 45.0 °F 89% 30.18 in 2.5 mi North 9.2 mph - N/A Rain Rain
9:29 AM 48.2 °F - 44.6 °F 87% 30.17 in 2.5 mi North 10.4 mph 17.3 mph N/A Rain Heavy Rain
9:55 AM 48.0 °F - 45.0 °F 89% 30.17 in 3.0 mi North 8.1 mph - N/A Rain Light Rain
10:55 AM 48.0 °F - 46.9 °F 96% 30.15 in 4.0 mi North 5.8 mph - N/A Rain Light Rain
11:39 AM 48.2 °F - 46.4 °F 93% 30.11 in 4.0 mi Variable 3.5 mph - N/A Rain Light Rain
12:55 PM 50.0 °F - 48.0 °F 93% 30.04 in 4.0 mi NNE 8.1 mph - N/A Rain Light Rain
1:55 PM 51.1 °F - 48.0 °F 89% 30.01 in 7.0 mi NNW 5.8 mph - N/A Rain Light Rain
2:55 PM 51.1 °F - 48.9 °F 92% 30.04 in 5.0 mi NW 6.9 mph - N/A Rain Light Rain
3:12 PM 50.0 °F - 48.2 °F 94% 30.01 in 2.5 mi North 5.8 mph - N/A Rain Heavy Rain
3:29 PM 50.0 °F - 48.2 °F 94% 30.01 in 6.0 mi NNE 5.8 mph - N/A Rain Light Rain
3:55 PM 50.0 °F - 48.0 °F 93% 29.99 in 6.0 mi NNW 5.8 mph - N/A Rain Light Rain
5:55 PM 50.0 °F - 48.0 °F 93% 30.03 in 6.0 mi WNW 4.6 mph - N/A Rain Light Rain
6:55 PM 51.1 °F - 48.0 °F 89% 30.00 in 6.0 mi North 5.8 mph - N/A   Overcast
7:55 PM 51.1 °F - 48.0 °F 89% 30.01 in 6.0 mi NNW 4.6 mph - N/A Rain Light Rain
8:18 PM 51.8 °F - 48.2 °F 88% 30.03 in 6.0 mi Variable 4.6 mph - N/A   Overcast
8:33 PM 51.8 °F - 48.2 °F 88% 30.03 in 6.0 mi Variable 5.8 mph - N/A Rain Light Rain
8:55 PM 51.1 °F - 48.0 °F 89% 30.03 in 6.0 mi NNW 3.5 mph - N/A Rain Light Rain
9:55 PM 51.1 °F - 48.0 °F 89% 30.01 in 6.0 mi NNW 4.6 mph - N/A Rain Light Rain
10:55 PM 50.0 °F - 48.0 °F 93% 30.01 in 6.0 mi Calm Calm - N/A Rain Light Rain
11:55 PM 50.0 °F - 48.0 °F 93% 30.02 in 8.0 mi West 4.6 mph - N/A Rain Light Rain